ATLAS 5 CENTAUR DEB, 45473

Orbit data source: Space-Track

ATLAS 5 CENTAUR DEB, 45473 is space debris in HEO originally from a launch on Wed, 17 Oct 2018 UTC launched from the Air Force Eastern Test Range (AFETR). Debris objects in space refer to the collection of defunct objects orbiting the Earth. Examples of debris include non-operational satellites, rocket bodies, and fragments generated from explosions, collisions, or faulty payload assembly.

Loading next visibility...
Identifier
45473, 2018-079BV
Orbit
HEO
Country
Flag of USUS
Related business
Flag of USUnited Launch Alliance/Lockheed Martin (US)
Manufacturer
ULA Decatur
Mission
Spacecraft
Bus & Motor
Unknown
Mass
Unknown
Launch date (UTC)
2018-10-17 (8 years ago)
Launch vehicle
Unknown
Launch site
Air Force Eastern Test Range (AFETR)
Object type
Payload
Rocket body
Debris
Shape & HBR
Unknown shape, 1.1 m
Radar Cross Section
Medium (>0.1 m² and <1 m²)

Expand to show TLE details & history
Last TLE update: 21 hours ago

TLE from 21 hours ago
0 ATLAS 5 CENTAUR DEB
1 45473U 18079BV  26236.19010063 -.00000153  00000-0  00000-0 0  9997
2 45473  13.0364  63.5777 4520706 251.9821  54.9169  1.70629011 42871
Epoch: 2026-08-24T04:33Z
TLE epoch observation values (Epoch: 2026-08-24T04:33:44.694Z)
Latitude
-0.00001°
Longitude
22.77548°
Altitude
20,974.253 km
Speed
3.959 km/s
True Right ascension
04h 14m 44s
True Declination
0° 00' 00"
Sunlit
Object was in daylight at epoch
Visualization orbit readout
Latitude
Unknown
Longitude
Unknown
Altitude
Unknown
Speed
Unknown
Apparent Right ascension
Unknown
Apparent Declination
Unknown
Sunlit
N/A
Visualization observer readout
Local Sidereal Time
17:08:50
Azimuth
Unknown
Elevation
Unknown
Doppler factor
Unknown
Orbital elements
Apogee altitude
36,580.422 km
Perigee altitude
9,831.996 km
Semi-major axis
29,584.346 km
Eccentricity
0.45207
Inclination
13.0364°
RAAN
63.5777°
Arg. of periapsis
251.9821°
True anomaly
108.03107°
Mean anomaly
54.9169°
Eccentric anomaly
80.46045°
Mean motion
0.42653 °/min
Orbital period
844.02 mins
BSTAR
0
Loading maneuver chart data...
Computing Atmospheric mass density...

Documentation

Showing up to 5 results
|